Zurück zum Katalog

ATLAS 5 CENTAUR DEB

LostHEO
NORAD 46844·DEBRIS·🇺🇸 United States

Gestartet Oct 17, 2018 von Cape Canaveral Space Force Station

Loading…

Nächste Überflüge (nächste 24 Stunden)

TLE

VeraltetSource: Space-Track

Epoche: Sep 4, 2024, 14:57 UTC

1 46844U 18079CZ  24248.62346834 -.00000155  00000-0  00000-0 0  9999
2 46844  11.9624  41.0020 4714373 325.8542  11.1514  2.03162534  6191

Verfolge ATLAS 5 CENTAUR DEB in Echtzeit mit AllMySat

Download on the App Store